Location: Kirtland Hills
(41.6239°N, 81.3071°W)
Time: 09:35:35
(UTC+00:00)

SMAP - Pass Details

Date: 29 October 2020
Orbit: 681 x 683 km, 98.1° (Epoch: 27 November)

Event Time Altitude Azimuth Distance (km) Brightness Sun altitude
Rises 22:54:44 0° 169° (S) 3,030 6.4 -6.6°
Reaches altitude 10° 22:56:58 10° 170° (S) 2,119 5.6 -7.0°
Maximum altitude 23:01:36 78° 257° (WSW) 702 3.3 -7.8°
Drops below altitude 10° 23:06:17 10° 344° (NNW) 2,135 5.7 -8.7°
Sets 23:08:32 0° 346° (NNW) 3,054 6.5 -9.1°
